Simultaneous Nadir Overpasses (SNOs) Predictions

Prediction of SNOs between AQUA and NOAA-19 Satellite Orbit:

Table of predicted SNOs for the next 14.0 days since TLE Epoch: 8/19/2023
Index Date (AQUA) Time (AQUA) Lat,Lon (AQUA) SZA (AQUA ) Date (NOAA-19) Time (NOAA-19) Lat,Lon (NOAA-19) SZA (NOAA-19 ) Distance(km) Time Diff (sec)
1 08/20/2023 13:52:06 76.31, -36.39 64.02 08/20/2023 13:51:51 76.29, -36.33 64.00 2.33 15
2 08/20/2023 14:41:38 -76.70, 129.92 115.53 08/20/2023 14:42:45 -76.71, 132.56 115.64 67.62 67
3 08/22/2023 18:33:54 76.28,-106.72 64.71 08/22/2023 18:33:16 76.28,-106.66 64.72 1.43 38
4 08/22/2023 19:23:19 -76.34, 60.74 115.22 08/22/2023 19:24:19 -76.33, 60.75 115.24 0.84 60
5 08/24/2023 23:15:41 76.23,-176.99 65.39 08/24/2023 23:14:41 76.26,-177.02 65.44 3.69 60
6 08/25/2023 00:05:07 -76.33, -9.68 114.48 08/25/2023 00:05:44 -76.33, -9.54 114.50 3.77 37
7 08/27/2023 03:57:22 75.93, 113.56 65.81 08/27/2023 03:56:14 75.88, 111.29 65.87 61.59 68
8 08/27/2023 04:46:53 -76.27, -79.90 113.80 08/27/2023 04:47:10 -76.28, -80.03 113.79 3.47 17
9 08/29/2023 09:28:40 -76.29,-150.38 113.01 08/29/2023 09:28:35 -76.26,-150.37 113.04 3.39 5
10 08/29/2023 10:18:12 76.65, 16.04 67.41 08/29/2023 10:19:19 76.68, 18.58 67.34 65.03 67
11 08/31/2023 14:10:25 -76.25, 139.35 112.28 08/31/2023 14:10:00 -76.24, 139.25 112.28 3.01 25



Historial Predications of SNOs between AQUA and NOAA-19
